Weather History for Luverne, MN

Change the Weather History Date:

Friday, July 12, 2013

  Actual Average (KFSD) Record (KFSD)
Temperature  
Mean Temperature 78 °F 73 °F  
Max Temperature 89 °F 84 °F 107 °F (1995)
Min Temperature 68 °F 62 °F 48 °F (1975)
Degree Days  
Heating Degree Days 0 0  
Month to date heating degree days 0  
Since 1 June heating degree days 51  
Since 1 July heating degree days 0  
Cooling Degree Days 14 8  
Month to date cooling degree days 95  
Year to date cooling degree days 266  
Since 1 June cooling degree days 230  
Growing Degree Days 28 (Base 50)    
Moisture  
Dew Point 64 °F    
Average Humidity 61    
Maximum Humidity 78    
Minimum Humidity 48    
Precipitation  
Precipitation 0.00 in 0.10 in 1.56 in (1908)
Month to date precipitation 1.24  
Year to date precipitation 14.49  
Snow  
Snow 0.00 in 0.00 in 0.00 in ()
Month to date snowfall 0.0  
Since 1 June snowfall 0.0  
Since 1 July snowfall 0.0  
Snow Depth -    
Sea Level Pressure  
Sea Level Pressure 29.93 in    
Wind  
Wind Speed 11 mph (South)    
Max Wind Speed 24 mph    
Max Gust Speed 31 mph    
Visibility 10 miles    
Events      
T = Trace of Precipitation, MM = Missing Value Source: NWS Daily Summary

Daily Weather History Graph

Daily Weather History Graph

Search for Another Location

Airport:

Trip Planner

Search our weather history database for the weather conditions in past years. The results will help you decide how hot, cold, wet, or windy it might be!

Date:

Astronomy

Jul. 12, 2013 Rise Set
Actual Time 5:54 AM CDT 9:05 PM CDT
Civil Twilight 5:20 AM CDT 9:40 PM CDT
Nautical Twilight 4:35 AM CDT 10:25 PM CDT
Astronomical Twilight 3:40 AM CDT 11:19 PM CDT
Moon 10:22 AM CDT (7/12) 11:05 PM CDT (7/12)
Length of Visible Light 16h 20m
Length of Day
15h 10m
Waxing Crescent, 17% of the Moon is Illuminated
Jul 12
Waxing Crescent
Jul 15
First Quarter
Jul 22
Full
Jul 29
Last Quarter
Aug 6
New

Hourly Weather History & Observations

Time (CDT) Temp. Heat Index Dew Point Humidity Pressure Visibility Wind Dir Wind Speed Gust Speed Precip Events Conditions
12:14 AM 71.6 °F - 60.8 °F 69% 29.99 in 10.0 mi SSE 8.1 mph - N/A   Clear
12:33 AM 69.8 °F - 60.8 °F 73% 29.99 in 10.0 mi SSE 8.1 mph - N/A   Clear
12:53 AM 69.8 °F - 60.8 °F 73% 29.99 in 10.0 mi South 6.9 mph - N/A   Clear
1:13 AM 69.8 °F - 60.8 °F 73% 29.99 in 10.0 mi SSE 6.9 mph - N/A   Clear
1:33 AM 69.8 °F - 60.8 °F 73% 29.99 in 10.0 mi SSE 6.9 mph - N/A   Clear
1:54 AM 69.8 °F - 60.8 °F 73% 29.98 in 10.0 mi SSE 8.1 mph - N/A   Clear
2:13 AM 68.0 °F - 60.8 °F 78% 29.98 in 10.0 mi SSE 5.8 mph - N/A   Clear
2:33 AM 68.0 °F - 60.8 °F 78% 29.98 in 10.0 mi SSE 8.1 mph - N/A   Clear
2:54 AM 68.0 °F - 59.0 °F 73% 29.98 in 10.0 mi South 5.8 mph - N/A   Clear
3:14 AM 68.0 °F - 59.0 °F 73% 29.98 in 10.0 mi South 8.1 mph - N/A   Clear
3:33 AM 68.0 °F - 59.0 °F 73% 29.98 in 10.0 mi South 8.1 mph - N/A   Clear
3:54 AM 68.0 °F - 59.0 °F 73% 29.98 in 10.0 mi South 8.1 mph - N/A   Clear
4:14 AM 68.0 °F - 59.0 °F 73% 29.98 in 10.0 mi South 8.1 mph - N/A   Clear
4:33 AM 68.0 °F - 59.0 °F 73% 29.97 in 10.0 mi South 9.2 mph - N/A   Clear
4:54 AM 68.0 °F - 59.0 °F 73% 29.97 in 10.0 mi South 9.2 mph - N/A   Clear
5:13 AM 68.0 °F - 59.0 °F 73% 29.97 in 10.0 mi SSE 6.9 mph - N/A   Clear
5:33 AM 68.0 °F - 59.0 °F 73% 29.97 in 10.0 mi SSE 5.8 mph - N/A   Clear
5:54 AM 68.0 °F - 59.0 °F 73% 29.98 in 10.0 mi SSE 4.6 mph - N/A   Clear
6:13 AM 68.0 °F - 59.0 °F 73% 29.97 in 10.0 mi SSE 5.8 mph - N/A   Clear
6:34 AM 68.0 °F - 59.0 °F 73% 29.97 in 10.0 mi SSE 5.8 mph - N/A   Clear
6:53 AM 68.0 °F - 59.0 °F 73% 29.97 in 10.0 mi SSE 6.9 mph - N/A   Clear
7:13 AM 68.0 °F - 59.0 °F 73% 29.97 in 10.0 mi SSE 6.9 mph - N/A   Clear
7:34 AM 69.8 °F - 59.0 °F 68% 29.97 in 10.0 mi SSE 9.2 mph - N/A   Clear
7:54 AM 69.8 °F - 59.0 °F 68% 29.97 in 10.0 mi SSE 10.4 mph - N/A   Clear
8:13 AM 71.6 °F - 59.0 °F 64% 29.97 in 10.0 mi SSE 11.5 mph - N/A   Clear
8:33 AM 71.6 °F - 59.0 °F 64% 29.97 in 10.0 mi South 11.5 mph 18.4 mph N/A   Clear
8:53 AM 73.4 °F - 59.0 °F 61% 29.96 in 10.0 mi South 16.1 mph 23.0 mph N/A   Clear
9:14 AM 75.2 °F - 59.0 °F 57% 29.96 in 10.0 mi South 18.4 mph 23.0 mph N/A   Clear
9:33 AM 77.0 °F - 60.8 °F 57% 29.96 in 10.0 mi South 17.3 mph 24.2 mph N/A   Clear
9:48 AM 77.0 °F - 60.8 °F 57% 29.96 in 10.0 mi South 17.3 mph 24.2 mph N/A   Clear
10:14 AM 78.8 °F - 60.8 °F 54% 29.95 in 10.0 mi South 16.1 mph 20.7 mph N/A   Clear
10:34 AM 78.8 °F - 62.6 °F 57% 29.95 in 10.0 mi South 15.0 mph 23.0 mph N/A   Clear
10:53 AM 80.6 °F 81.8 °F 62.6 °F 54% 29.95 in 10.0 mi South 17.3 mph 25.3 mph N/A   Clear
11:13 AM 80.6 °F 81.8 °F 62.6 °F 54% 29.94 in 10.0 mi South 18.4 mph 25.3 mph N/A   Clear
11:33 AM 80.6 °F 81.8 °F 62.6 °F 54% 29.93 in 10.0 mi South 16.1 mph 24.2 mph N/A   Clear
11:53 AM 82.4 °F 83.4 °F 62.6 °F 51% 29.92 in 10.0 mi South 20.7 mph 27.6 mph N/A   Clear
12:14 PM 82.4 °F 83.9 °F 64.4 °F 54% 29.92 in 10.0 mi South 19.6 mph 26.5 mph N/A   Clear
12:33 PM 84.2 °F 85.6 °F 64.4 °F 51% 29.92 in 10.0 mi SSE 16.1 mph 24.2 mph N/A   Clear
12:53 PM 84.2 °F 85.6 °F 64.4 °F 51% 29.92 in 10.0 mi South 18.4 mph 27.6 mph N/A   Clear
1:14 PM 86.0 °F 87.3 °F 64.4 °F 48% 29.91 in 10.0 mi South 23.0 mph 26.5 mph N/A   Clear
1:33 PM 86.0 °F 87.3 °F 64.4 °F 48% 29.90 in 10.0 mi South 18.4 mph 25.3 mph N/A   Clear
1:53 PM 86.0 °F 88.2 °F 66.2 °F 51% 29.90 in 10.0 mi South 18.4 mph 26.5 mph N/A   Clear
2:14 PM 87.8 °F 90.4 °F 66.2 °F 49% 29.90 in 10.0 mi South 24.2 mph 27.6 mph N/A   Clear
2:33 PM 87.8 °F 90.4 °F 66.2 °F 49% 29.90 in 10.0 mi South 20.7 mph 28.8 mph N/A   Clear
2:53 PM 87.8 °F 91.4 °F 68.0 °F 52% 29.89 in 10.0 mi South 19.6 mph 26.5 mph N/A   Clear
3:14 PM 89.6 °F 93.4 °F 68.0 °F 49% 29.89 in 10.0 mi South 20.7 mph 28.8 mph N/A   Clear
3:33 PM 89.6 °F 94.7 °F 69.8 °F 52% 29.89 in 10.0 mi South 17.3 mph 25.3 mph N/A   Clear
3:53 PM 89.6 °F 93.4 °F 68.0 °F 49% 29.88 in 10.0 mi South 20.7 mph 27.6 mph N/A   Clear
4:14 PM 89.6 °F 93.4 °F 68.0 °F 49% 29.89 in 10.0 mi South 18.4 mph 29.9 mph N/A   Clear
4:33 PM 89.6 °F 93.4 °F 68.0 °F 49% 29.87 in 10.0 mi South 20.7 mph 31.1 mph N/A   Clear
4:53 PM 89.6 °F 93.4 °F 68.0 °F 49% 29.87 in 10.0 mi South 18.4 mph 27.6 mph N/A   Clear
5:13 PM 89.6 °F 94.7 °F 69.8 °F 52% 29.87 in 10.0 mi South 18.4 mph 27.6 mph N/A   Clear
5:33 PM 89.6 °F 94.7 °F 69.8 °F 52% 29.87 in 10.0 mi South 18.4 mph 27.6 mph N/A   Clear
5:54 PM 89.6 °F 93.4 °F 68.0 °F 49% 29.87 in 10.0 mi South 18.4 mph 27.6 mph N/A   Clear
6:13 PM 87.8 °F 91.4 °F 68.0 °F 52% 29.87 in 10.0 mi South 20.7 mph 27.6 mph N/A   Clear
6:33 PM 87.8 °F 91.4 °F 68.0 °F 52% 29.87 in 10.0 mi South 18.4 mph 24.2 mph N/A   Clear
6:54 PM 87.8 °F 91.4 °F 68.0 °F 52% 29.87 in 10.0 mi South 17.3 mph 27.6 mph N/A   Clear
7:13 PM 87.8 °F 91.4 °F 68.0 °F 52% 29.87 in 10.0 mi South 16.1 mph 25.3 mph N/A   Clear
7:33 PM 86.0 °F 89.4 °F 68.0 °F 55% 29.87 in 10.0 mi South 15.0 mph 21.9 mph N/A   Clear
7:54 PM 86.0 °F 89.4 °F 68.0 °F 55% 29.88 in 10.0 mi South 15.0 mph 24.2 mph N/A   Clear
8:13 PM 84.2 °F 87.3 °F 68.0 °F 58% 29.89 in 10.0 mi South 12.7 mph - N/A   Clear
8:33 PM 82.4 °F 85.4 °F 68.0 °F 62% 29.88 in 10.0 mi South 12.7 mph 19.6 mph N/A   Clear
8:54 PM 82.4 °F 85.4 °F 68.0 °F 62% 29.89 in 10.0 mi South 12.7 mph 17.3 mph N/A   Clear
9:13 PM 82.4 °F 85.4 °F 68.0 °F 62% 29.89 in 10.0 mi South 11.5 mph 19.6 mph N/A   Clear
9:33 PM 80.6 °F 83.2 °F 68.0 °F 65% 29.88 in 10.0 mi South 12.7 mph 17.3 mph N/A   Clear
9:54 PM 80.6 °F 83.2 °F 68.0 °F 65% 29.89 in 10.0 mi South 8.1 mph - N/A   Clear
10:13 PM 78.8 °F - 68.0 °F 69% 29.90 in 10.0 mi South 10.4 mph - N/A   Clear
10:34 PM 78.8 °F - 66.2 °F 65% 29.90 in 10.0 mi South 8.1 mph - N/A   Scattered Clouds
10:53 PM 78.8 °F - 66.2 °F 65% 29.91 in 10.0 mi South 11.5 mph 16.1 mph N/A   Scattered Clouds
11:13 PM 78.8 °F - 66.2 °F 65% 29.92 in 10.0 mi South 11.5 mph 16.1 mph N/A   Scattered Clouds
11:34 PM 78.8 °F - 64.4 °F 61% 29.93 in 10.0 mi South 8.1 mph - N/A   Scattered Clouds
11:53 PM 78.8 °F - 64.4 °F 61% 29.93 in 10.0 mi South 8.1 mph - N/A   Scattered Clouds